This is the latest recevied weather packets stored in our database for station/object HB9FVK-10. If no packets are shown the sender has not sent any weather packets the latest 10 day(s).
| Time | Temp. | Humidity | Pressure | Rain* | Wind** | Luminosity | Snow |
|---|---|---|---|---|---|---|---|
| 1777321286 | 13.33° C | 59% | 1021.6 hPa | - | - | - | - |
| 1777315855 | 17.22° C | 47% | 1021.3 hPa | - | - | - | - |
| 1777311047 | 21.11° C | 33% | 1021.2 hPa | - | - | - | - |
| 1777308642 | 21.67° C | 28% | 1021.3 hPa | - | - | - | - |
| 1777302029 | 22.78° C | 24% | 1021.9 hPa | - | - | - | - |
| 1777300827 | 22.22° C | 25% | 1022.1 hPa | - | - | - | - |
| 1777296018 | 22.22° C | 25% | 1022.9 hPa | - | - | - | - |
| 1777289465 | 21.11° C | 28% | 1023.9 hPa | - | - | - | - |
| 1777287061 | 20° C | 36% | 1024.2 hPa | - | - | - | - |
| 1777282853 | 18.33° C | 41% | 1024.9 hPa | - | - | - | - |
| 1777280448 | 15.56° C | 45% | 1025.3 hPa | - | - | - | - |
| 1777278666 | - | - | 1025.5 hPa | - | - | - | - |
| 1777275059 | - | - | 1025.8 hPa | - | - | - | - |
| 1777274437 | - | - | 1025.9 hPa | - | - | - | - |
| 1777272655 | 10.56° C | 63% | 1026.1 hPa | - | - | - | - |
| 1777270229 | 8.89° C | 70% | 1026 hPa | - | - | - | - |
| 1777269028 | 7.78° C | 72% | 1026 hPa | - | - | - | - |
| 1777267223 | 6.11° C | 77% | 1025.8 hPa | - | - | - | - |
| 1777261292 | 5° C | 80% | 1025.5 hPa | - | - | - | - |
| 1777260671 | 5° C | 80% | 1025.4 hPa | - | - | - | - |
| 1777252898 | 6.11° C | 78% | 1025.4 hPa | - | - | - | - |
| 1777251654 | 6.11° C | 77% | 1025.5 hPa | - | - | - | - |
| 1777250452 | 6.11° C | 76% | 1025.6 hPa | - | - | - | - |
| 1777246265 | 7.22° C | 72% | 1025.8 hPa | - | - | - | - |
| 1777243839 | 7.78° C | 70% | 1025.7 hPa | - | - | - | - |
* Rain since midnight (hover to see other rain measurements)
** Current wind speed in m/s (hover to see current wind gust speed)